THOR ABLESTAR DEB, 244

Orbit data source: Space-Track

THOR ABLESTAR DEB, 244 is space debris in LEO originally from a launch on Thu, 29 Jun 1961 UTC launched from the Air Force Eastern Test Range (AFETR). Debris objects in space refer to the collection of defunct objects orbiting the Earth. Examples of debris include non-operational satellites, rocket bodies, and fragments generated from explosions, collisions, or faulty payload assembly.

Loading next visibility...
Identifier
244, 1961-015BZ
Orbit
LEO
Country
Flag of USUS
Related business
Manufacturer
Unknown
Mission
Spacecraft
Bus & Motor
Unknown
Mass
Unknown
Launch date (UTC)
1961-06-29 (64 years ago)
Launch vehicle
Unknown
Launch site
Air Force Eastern Test Range (AFETR)
Object type
Payload
Rocket body
Debris
Shape & HBR
Unknown shape, 0.2 m
Radar Cross Section
Small (<0.1 m²)

Expand to show TLE details & history
Last TLE update: 11 hours ago

TLE from 11 hours ago
0 THOR ABLESTAR DEB
1 00244U 61015BZ  25308.44260954  .00000208  00000-0  20471-3 0  9992
2 00244  66.8416  61.7653 0075518 245.5712 113.7477 13.95630676267778
Epoch: 2025-11-04T10:37Z
TLE epoch observation values (Epoch: 2025-11-04T10:37:21.464Z)
Latitude
-0.00008°
Longitude
-141.50373°
Altitude
933.559 km
Speed
7.374 km/s
True Right ascension
04h 07m 03s
True Declination
0° 00' 00"
Sunlit
Object was in full shadow at epoch
Visualization orbit readout
Latitude
Unknown
Longitude
Unknown
Altitude
Unknown
Speed
Unknown
Apparent Right ascension
Unknown
Apparent Declination
Unknown
Sunlit
N/A
Visualization observer readout
Local Sidereal Time
17:43:25
Azimuth
Unknown
Elevation
Unknown
Doppler factor
Unknown
Orbital elements
Apogee altitude
962.368 km
Perigee altitude
852.331 km
Semi-major axis
7,285.487 km
Eccentricity
0.00755
Inclination
66.8416°
RAAN
61.7653°
Arg. of periapsis
245.5712°
True anomaly
114.53677°
Mean anomaly
113.7477°
Eccentric anomaly
114.14254°
Mean motion
3.49024 °/min
Orbital period
103.14 mins
BSTAR
0.00020471
Loading maneuver chart data...
Computing Atmospheric mass density...

Documentation

Showing up to 5 results
|